TimeAST,TemperatureF,Dew PointF,Humidity,Sea Level PressureIn,VisibilityMPH,Wind Direction,Wind SpeedMPH,Gust SpeedMPH,PrecipitationIn,Events,Conditions,WindDirDegrees,DateUTC
12:56 AM,81.0,73.0,77,29.85,10.0,ESE,6.9,-,N/A,,Partly Cloudy,110,2012-10-25 04:56:00
1:56 AM,80.1,73.0,79,29.83,10.0,ESE,3.5,-,N/A,,Scattered Clouds,120,2012-10-25 05:56:00
2:56 AM,80.1,72.0,76,29.81,10.0,East,5.8,-,N/A,,Scattered Clouds,100,2012-10-25 06:56:00
3:56 AM,79.0,72.0,79,29.81,10.0,East,5.8,-,N/A,,Scattered Clouds,80,2012-10-25 07:56:00
4:56 AM,80.1,71.1,74,29.81,10.0,East,6.9,-,N/A,,Scattered Clouds,100,2012-10-25 08:56:00
5:56 AM,80.1,72.0,76,29.80,10.0,ESE,6.9,-,N/A,,Scattered Clouds,110,2012-10-25 09:56:00
6:56 AM,80.1,72.0,76,29.82,10.0,East,5.8,-,N/A,,Scattered Clouds,100,2012-10-25 10:56:00
7:56 AM,82.9,72.0,69,29.84,10.0,East,3.5,-,N/A,,Scattered Clouds,90,2012-10-25 11:56:00
8:56 AM,86.0,72.0,63,29.86,10.0,ESE,12.7,17.3,N/A,,Scattered Clouds,120,2012-10-25 12:56:00
9:56 AM,89.1,73.0,59,29.87,10.0,ESE,8.1,-,N/A,,Scattered Clouds,120,2012-10-25 13:56:00
10:56 AM,90.0,71.1,54,29.86,10.0,SE,12.7,19.6,N/A,,Scattered Clouds,140,2012-10-25 14:56:00
11:56 AM,89.1,71.1,55,29.84,10.0,SE,11.5,21.9,N/A,,Scattered Clouds,130,2012-10-25 15:56:00
12:56 PM,88.0,71.1,57,29.82,10.0,SE,10.4,19.6,N/A,,Scattered Clouds,140,2012-10-25 16:56:00
1:56 PM,87.1,72.0,61,29.83,10.0,SE,10.4,-,N/A,,Scattered Clouds,130,2012-10-25 17:56:00
2:56 PM,86.0,73.0,65,29.85,10.0,SSE,8.1,-,N/A,,Mostly Cloudy,160,2012-10-25 18:56:00
3:56 PM,84.9,75.0,72,29.85,6.0,SE,6.9,-,0.00,Rain,Light Rain,140,2012-10-25 19:56:00
4:56 PM,82.9,77.0,82,29.84,10.0,SE,3.5,-,0.00,,Overcast,140,2012-10-25 20:56:00
5:56 PM,81.0,75.0,82,29.84,10.0,East,5.8,-,N/A,,Overcast,80,2012-10-25 21:56:00
6:56 PM,82.9,75.9,79,29.85,10.0,Calm,Calm,-,N/A,,Mostly Cloudy,0,2012-10-25 22:56:00
7:45 PM,82.4,77.0,84,29.87,5.0,WSW,9.2,-,0.01,Rain-Thunderstorm,Thunderstorms and Rain,250,2012-10-25 23:45:00
7:56 PM,80.1,77.0,90,29.88,3.0,SW,9.2,-,0.12,Rain-Thunderstorm,Heavy Thunderstorms and Rain,230,2012-10-25 23:56:00
8:17 PM,77.0,73.4,89,29.88,6.0,West,10.4,-,0.21,Rain,Rain,260,2012-10-26 00:17:00
8:56 PM,78.1,75.0,90,29.88,10.0,SSW,5.8,-,0.21,,Scattered Clouds,210,2012-10-26 00:56:00
9:56 PM,78.1,75.0,90,29.88,10.0,South,3.5,-,N/A,,Scattered Clouds,170,2012-10-26 01:56:00
10:56 PM,78.1,75.0,90,29.88,10.0,South,4.6,-,0.00,,Scattered Clouds,170,2012-10-26 02:56:00
11:56 PM,79.0,75.0,88,29.86,10.0,ESE,5.8,-,0.00,Rain,Light Rain,120,2012-10-26 03:56:00